Previsão horária em Cerkovische

Hoje, 25 Julho, Domingo

Tempo Temperatura Precipitação Vento Pressão Humidade
00:00 +14°C° 0 mm 1 m/s 744 mmHg 73%
01:00 +14°C° 0 mm 1 m/s 745 mmHg 75%
02:00 +14°C° 0 mm 1 m/s 745 mmHg 78%
03:00 +14°C° 0 mm 1 m/s 745 mmHg 78%
04:00 +14°C° 0 mm 1 m/s 745 mmHg 78%
05:00 +15°C° 0 mm 1 m/s 745 mmHg 78%
06:00 +18°C° 0 mm 1 m/s 745 mmHg 72%
07:00 +20°C° 0 mm 1 m/s 745 mmHg 65%
08:00 +22°C° 0 mm 1 m/s 746 mmHg 57%
09:00 +23°C° 0 mm 1 m/s 746 mmHg 53%
10:00 +25°C° 0 mm 1 m/s 746 mmHg 48%
11:00 +26°C° 0 mm 1 m/s 746 mmHg 44%
12:00 +27°C° 0 mm 1 m/s 746 mmHg 41%
13:00 +27°C° 0 mm 1 m/s 746 mmHg 39%
14:00 +28°C° 0 mm 1 m/s 746 mmHg 36%
15:00 +28°C° 0 mm 1 m/s 746 mmHg 38%
16:00 +28°C° 0 mm 1 m/s 746 mmHg 40%
17:00 +28°C° 0 mm 1 m/s 746 mmHg 41%
18:00 +26°C° 0 mm 1 m/s 746 mmHg 47%
19:00 +24°C° 0 mm 1 m/s 746 mmHg 53%
20:00 +21°C° 0 mm 2 m/s 746 mmHg 58%
21:00 +21°C° 0 mm 2 m/s 746 mmHg 62%
22:00 +20°C° 0 mm 2 m/s 746 mmHg 65%
23:00 +19°C° 0 mm 2 m/s 747 mmHg 68%

Amanhã, 26 Julho, Segunda-feira

Tempo Temperatura Precipitação Vento Pressão Humidade
00:00 +19°C° 0 mm 2 m/s 747 mmHg 70%
01:00 +18°C° 0 mm 2 m/s 747 mmHg 72%
02:00 +18°C° 0 mm 2 m/s 747 mmHg 74%
03:00 +18°C° 0 mm 2 m/s 747 mmHg 75%
04:00 +18°C° 0 mm 2 m/s 747 mmHg 75%
05:00 +18°C° 0 mm 2 m/s 747 mmHg 75%
06:00 +20°C° 0 mm 2 m/s 748 mmHg 71%
07:00 +21°C° 0 mm 2 m/s 748 mmHg 67%
08:00 +24°C° 0 mm 2 m/s 748 mmHg 63%
09:00 +25°C° 0 mm 2 m/s 748 mmHg 57%
10:00 +27°C° 0 mm 2 m/s 748 mmHg 51%
11:00 +28°C° 0 mm 2 m/s 748 mmHg 46%
12:00 +28°C° 0 mm 2 m/s 748 mmHg 46%
13:00 +28°C° 0 mm 2 m/s 748 mmHg 47%
14:00 +28°C° 0 mm 2 m/s 747 mmHg 47%
15:00 +27°C° 0 mm 2 m/s 747 mmHg 49%
16:00 +27°C° 0 mm 2 m/s 747 mmHg 51%
17:00 +26°C° 0 mm 2 m/s 747 mmHg 52%
18:00 +25°C° 0 mm 2 m/s 747 mmHg 56%
19:00 +24°C° 0 mm 1 m/s 747 mmHg 59%
20:00 +23°C° 0 mm 1 m/s 747 mmHg 62%
21:00 +22°C° 0 mm 1 m/s 747 mmHg 65%
22:00 +20°C° 0 mm 2 m/s 747 mmHg 68%
23:00 +20°C° 0 mm 2 m/s 747 mmHg 71%

Depois de amanhã, 27 Julho, Terça-feira

Tempo Temperatura Precipitação Vento Pressão Humidade
00:00 +19°C° 0 mm 2 m/s 747 mmHg 74%
01:00 +18°C° 0 mm 2 m/s 747 mmHg 77%
02:00 +17°C° 0 mm 2 m/s 747 mmHg 80%
03:00 +17°C° 0 mm 2 m/s 747 mmHg 80%
04:00 +17°C° 0 mm 2 m/s 747 mmHg 81%
05:00 +17°C° 0 mm 2 m/s 747 mmHg 81%
06:00 +19°C° 0 mm 2 m/s 747 mmHg 74%
07:00 +21°C° 0 mm 3 m/s 747 mmHg 67%
08:00 +24°C° 0 mm 3 m/s 747 mmHg 60%
09:00 +26°C° 0 mm 3 m/s 747 mmHg 54%
10:00 +28°C° 0 mm 3 m/s 747 mmHg 49%
11:00 +29°C° 0 mm 4 m/s 746 mmHg 44%
12:00 +29°C° 0 mm 4 m/s 746 mmHg 42%
13:00 +30°C° 0 mm 4 m/s 746 mmHg 40%
14:00 +30°C° 0 mm 5 m/s 745 mmHg 38%
15:00 +29°C° 0 mm 4 m/s 745 mmHg 43%
16:00 +27°C° 0 mm 4 m/s 745 mmHg 47%
17:00 +26°C° 0 mm 4 m/s 745 mmHg 52%
18:00 +24°C° 0.3 mm 3 m/s 745 mmHg 60%
19:00 +22°C° 0.3 mm 3 m/s 745 mmHg 69%
20:00 +20°C° 0.3 mm 2 m/s 744 mmHg 77%
21:00 +20°C° 0.5 mm 3 m/s 744 mmHg 81%
22:00 +19°C° 0.5 mm 3 m/s 744 mmHg 85%
23:00 +19°C° 0.5 mm 4 m/s 744 mmHg 89%

28 Julho, Quarta-feira

Tempo Temperatura Precipitação Vento Pressão Humidade
00:00 +19°C° 0.9 mm 4 m/s 743 mmHg 90%
01:00 +19°C° 0.9 mm 5 m/s 743 mmHg 92%
02:00 +19°C° 0.9 mm 5 m/s 742 mmHg 93%
03:00 +17°C° 1 mm 5 m/s 742 mmHg 94%
04:00 +17°C° 1 mm 5 m/s 741 mmHg 94%
05:00 +17°C° 1 mm 5 m/s 741 mmHg 94%
06:00 +18°C° 0.9 mm 4 m/s 741 mmHg 95%
07:00 +18°C° 0.9 mm 4 m/s 740 mmHg 96%
08:00 +18°C° 0.9 mm 3 m/s 740 mmHg 97%
09:00 +19°C° 0.2 mm 3 m/s 740 mmHg 93%
10:00 +20°C° 0.2 mm 3 m/s 740 mmHg 90%
11:00 +21°C° 0.2 mm 3 m/s 740 mmHg 87%
12:00 +22°C° 0.7 mm 4 m/s 740 mmHg 84%
13:00 +23°C° 0.7 mm 4 m/s 739 mmHg 80%
14:00 +25°C° 0.7 mm 5 m/s 739 mmHg 76%
15:00 +25°C° 0.5 mm 5 m/s 739 mmHg 77%
16:00 +25°C° 0.5 mm 4 m/s 739 mmHg 78%
17:00 +25°C° 0.5 mm 4 m/s 739 mmHg 79%
18:00 +22°C° 0.1 mm 3 m/s 739 mmHg 83%
19:00 +21°C° 0.1 mm 3 m/s 739 mmHg 87%
20:00 +20°C° 0.1 mm 2 m/s 739 mmHg 91%
21:00 +19°C° 0 mm 2 m/s 739 mmHg 92%
22:00 +19°C° 0 mm 2 m/s 739 mmHg 93%
23:00 +18°C° 0 mm 2 m/s 740 mmHg 94%

29 Julho, Quinta-feira

Tempo Temperatura Precipitação Vento Pressão Humidade
00:00 +18°C° 0 mm 3 m/s 740 mmHg 93%
01:00 +18°C° 0 mm 3 m/s 740 mmHg 93%
02:00 +17°C° 0 mm 3 m/s 740 mmHg 93%
03:00 +17°C° 0 mm 3 m/s 740 mmHg 92%
04:00 +17°C° 0 mm 3 m/s 740 mmHg 92%
05:00 +17°C° 0 mm 3 m/s 740 mmHg 91%
06:00 +18°C° 0 mm 3 m/s 740 mmHg 85%
07:00 +20°C° 0 mm 3 m/s 740 mmHg 79%
08:00 +22°C° 0 mm 3 m/s 740 mmHg 72%
09:00 +24°C° 0 mm 3 m/s 740 mmHg 66%
10:00 +26°C° 0 mm 4 m/s 741 mmHg 59%
11:00 +28°C° 0 mm 4 m/s 741 mmHg 52%
12:00 +28°C° 0 mm 4 m/s 741 mmHg 50%
13:00 +29°C° 0 mm 4 m/s 740 mmHg 48%
14:00 +29°C° 0 mm 4 m/s 740 mmHg 45%
15:00 +29°C° 0 mm 4 m/s 740 mmHg 48%
16:00 +29°C° 0 mm 3 m/s 740 mmHg 50%
17:00 +28°C° 0 mm 3 m/s 740 mmHg 52%
18:00 +27°C° 0 mm 3 m/s 740 mmHg 58%
19:00 +25°C° 0 mm 2 m/s 740 mmHg 64%
20:00 +23°C° 0 mm 2 m/s 740 mmHg 70%
21:00 +21°C° 0.2 mm 2 m/s 740 mmHg 76%
22:00 +20°C° 0.2 mm 2 m/s 740 mmHg 81%
23:00 +19°C° 0.2 mm 2 m/s 740 mmHg 87%

30 Julho, Sexta-feira

Tempo Temperatura Precipitação Vento Pressão Humidade
00:00 +18°C° 0 mm 2 m/s 740 mmHg 87%
01:00 +18°C° 0 mm 2 m/s 741 mmHg 88%
02:00 +18°C° 0 mm 2 m/s 741 mmHg 89%
03:00 +17°C° 0 mm 2 m/s 741 mmHg 89%
04:00 +17°C° 0 mm 2 m/s 741 mmHg 89%
05:00 +17°C° 0 mm 2 m/s 741 mmHg 88%
06:00 +19°C° 0 mm 2 m/s 741 mmHg 81%
07:00 +22°C° 0 mm 1 m/s 741 mmHg 74%
08:00 +23°C° 0 mm 1 m/s 741 mmHg 67%
09:00 +25°C° 0 mm 1 m/s 741 mmHg 61%
10:00 +26°C° 0 mm 1 m/s 741 mmHg 54%
11:00 +28°C° 0 mm 1 m/s 741 mmHg 47%
12:00 +28°C° 0 mm 1 m/s 741 mmHg 46%
13:00 +29°C° 0 mm 1 m/s 741 mmHg 44%
14:00 +29°C° 0 mm 1 m/s 741 mmHg 42%
15:00 +29°C° 0 mm 1 m/s 740 mmHg 43%
16:00 +29°C° 0 mm 1 m/s 740 mmHg 44%
17:00 +29°C° 0 mm 1 m/s 740 mmHg 46%
18:00 +27°C° 0 mm 1 m/s 740 mmHg 50%
19:00 +25°C° 0 mm 1 m/s 740 mmHg 55%
20:00 +24°C° 0 mm 1 m/s 740 mmHg 59%
21:00 +23°C° 0 mm 1 m/s 739 mmHg 63%
22:00 +21°C° 0 mm 2 m/s 739 mmHg 67%
23:00 +21°C° 0 mm 2 m/s 739 mmHg 70%
Mostrar mais

Necessitamos do seu Consentimento

A Meteoprog e os seus Fornecedores de Serviços podem armazenar e aceder a dados pessoais como cookies, identificadores do dispositivo ou outras tecnologias semelhantes existentes no seu dispositivo e processar estes dados para personalizar conteúdos e anúncios, assim como funcionalidades nas redes sociais e análise de tráfego.

  • Armazenar e/ou aceder a informações no seu dispositivo

    Os cookies, identificadores do dispositivo ou outras informações podem ser armazenados ou acedidos no seu dispositivo, para os fins acima indicados.

  • Anúncios e conteúdos personalizados, medição de anúncios e conteúdos, dados sobre o público-alvo e desenvolvimento de produtos

    Os anúncios e os conteúdos podem ser personalizados com base num perfil. Podem ser adicionados dados adicionais para uma maior personalização dos anúncios e dos conteúdos. A eficácia dos anúncios e dos conteúdos pode ser medida. Podem ser obtidas informações sobre o público que visualizou os anúncios e os conteúdos. Estes dados podem ser usados para desenvolver ou melhorar sistemas, softwares ou a experiência do utilizador.

Ao clicar em "Eu concordo”, permitirá o uso de cookies, identificadores do dispositivo e web beacons mencionados ou outras tecnologias semelhantes. As configurações do navegador do seu dispositivo podem ser alteradas.

Para certos fins, podem ser invocados interesses legítimos ao invés de consentimento. Pode ler mais informação sobre este assunto na nossa Política de Privacidade e Cookies.